Weather observations for the past three days for
Mosinee
Metric (Imperial)
Date Time (cdt) Wind (kph) Vis. (km) Weather Sky Cond. Temperature (ºC) Relative Humidity Wind Chill (°C) Heat Index (°C) Pressure Precipitation (cm)
Air Dwpt 6 hour altimeter (cm) sea level (mb) 1 hr 3 hr 6 hr
Max. Min.
09 04:15 NW 17 16.09 Overcast BKN150 OVC180 10 -1 47% 8 75.01 0.0
09 03:55 NW 19 16.09 Overcast SCT150 BKN210 OVC230 10 -1 47% 8 75.01 0.0
09 03:35 NW 20 G 31 16.09 Overcast SCT180 BKN200 OVC230 10 -1 47% 8 74.98 0.0
09 02:55 NW 17 16.09 Partly Cloudy FEW220 SCT240 9 0 54% 7 74.96 0.0
09 02:35 W 13 16.09 A Few Clouds FEW220 8 1 62% 6 74.93 0.0
09 02:15 W 9 16.09 Partly Cloudy FEW200 SCT220 7 1 66% 5 74.96 0.0
09 01:55 W 9 16.09 Fair CLR 7 0 61% 5 74.96 0.0
09 01:35 SW 9 16.09 A Few Clouds FEW230 6 0 66% 4 74.96 0.0
09 01:15 SW 7 16.09 Mostly Cloudy BKN220 BKN240 8 0 57% 7 74.98 0.0
09 00:55 SW 7 16.09 Mostly Cloudy SCT220 BKN240 7 -1 57% 6 74.98 0.0
09 00:35 S 9 16.09 Fair CLR 8 -1 53% 7 74.98 0.0
09 00:15 S 11 16.09 Fair CLR 8 -1 53% 6 75.01 0.0
08 23:55 S 13 16.09 A Few Clouds FEW110 9 -1 50% 7 75.03 0.0
08 23:35 S 6 16.09 Partly Cloudy SCT120 9 -1 50% 75.06 0.0
08 23:15 S 6 16.09 Partly Cloudy SCT120 9 -1 50% 75.08 0.0
08 22:55 Calm 16.09 Mostly Cloudy BKN120 10 0 50% 75.08 0.0
08 22:35 Calm 16.09 Overcast OVC120 10 0 50% 75.11 0.0
08 22:15 Calm 16.09 Overcast OVC120 10 1 54% 75.11 0.0
08 21:50 Calm 16.09 Partly Cloudy SCT100 SCT120 11 1 50% 75.13 0.0
08 20:50 Calm 16.09 Mostly Cloudy BKN110 12 -1 41% 75.16 0.0
08 19:50 Calm 16.09 Partly Cloudy SCT100 SCT120 14 0 39% 75.16 0.0
08 18:50 NW 17 16.09 Mostly Cloudy BKN095 BKN120 16 -2 29% 75.18 0.0
08 17:50 W 28 G 44 16.09 Mostly Cloudy SCT075 BKN090 17 -3 25% 75.21 0.0
08 16:50 W 19 16.09 Overcast BKN100 OVC120 17 -1 30% 75.21 0.0
08 15:50 W 19 G 41 16.09 Mostly Cloudy BKN100 BKN120 17 -3 25% 75.26 0.0
08 14:50 W 28 G 44 16.09 Mostly Cloudy BKN100 BKN120 18 -2 26% 75.34 0.0
08 13:50 W 24 16.09 Mostly Cloudy BKN130 15 -2 31% 75.46 0.0
08 12:50 W 24 16.09 Mostly Cloudy BKN130 15 -2 31% 75.46 0.0
08 10:50 W 20 16.09 Fair CLR 14 -3 31% 75.57 0.0
08 09:50 W 22 16.09 Fair CLR 12 -3 35% 75.62 0.0
08 08:50 W 20 16.09 Fair CLR 9 -3 43% 6 75.67 0.0
08 07:50 SW 11 16.09 Fair CLR 7 -3 49% 5 75.67 0.0
08 06:50 SW 11 16.09 Fair CLR 4 -3 61% 2 75.62 0.0
08 05:50 SW 11 16.09 Fair CLR 0 -4 75% -3 75.62 0.0
08 05:35 SW 11 16.09 Fair CLR 2 -4 65% -1 75.62 0.0
08 05:15 SW 15 16.09 Fair CLR 2 -4 65% -2 75.62 0.0
08 04:55 S 15 16.09 Fair CLR 2 -4 65% -2 75.62 0.0
08 04:35 SW 13 16.09 Fair CLR 2 -4 65% -1 75.62 0.0
08 04:15 SW 11 16.09 Fair CLR 2 -4 65% -1 75.62 0.0
08 03:55 S 13 16.09 Fair CLR 2 -4 65% -1 75.64 0.0
08 03:35 SW 15 16.09 Fair CLR 2 -4 65% -2 75.64 0.0
08 03:15 SW 17 16.09 Fair CLR 2 -4 65% -2 75.64 0.0
08 02:35 S 15 16.09 Fair CLR 1 -4 70% -3 75.67 0.0
08 02:15 S 13 16.09 Fair CLR 1 -4 70% -2 75.67 0.0
08 01:55 SW 15 16.09 Fair CLR 1 -4 70% -3 75.69 0.0
08 01:35 S 13 16.09 Fair CLR 1 -4 70% -2 75.69 0.0
08 01:15 S 11 16.09 Fair CLR 1 -4 70% -2 75.72 0.0
08 00:55 SW 11 16.09 A Few Clouds FEW080 1 -4 70% -2 75.72 0.0
08 00:35 S 9 16.09 Partly Cloudy SCT080 1 -4 70% -2 75.72 0.0
08 00:10 S 9 16.09 Fair CLR 1 -4 70% -2 75.74 0.0
07 23:55 S 9 16.09 Fair CLR 1 -4 70% -2 75.74 0.0
07 23:35 S 11 16.09 Fair CLR 1 -4 70% -2 75.74 0.0
07 23:15 SW 9 16.09 Fair CLR 1 -4 70% -2 75.74 0.0
07 22:55 SW 9 16.09 Fair CLR 2 -4 65% -0 75.74 0.0
07 22:35 SW 9 16.09 Fair CLR 2 -4 65% -0 75.74 0.0
07 21:50 SW 7 16.09 Fair CLR 3 -4 60% 1 75.74 0.0
07 20:50 SW 7 16.09 Fair CLR 4 -5 52% 2 75.72 0.0
07 19:50 W 13 16.09 Fair CLR 8 -6 37% 6 75.69 0.0
07 18:50 NW 15 16.09 A Few Clouds FEW085 10 -5 35% 8 75.72 0.0
07 17:50 SW 15 G 26 16.09 Mostly Cloudy BKN080 10 -5 35% 8 75.72 0.0
07 16:50 NW 20 16.09 Mostly Cloudy BKN070 10 -6 32% 8 75.74 0.0
07 15:50 W 15 G 26 16.09 Overcast OVC065 10 -6 32% 8 75.74 0.0
07 14:50 NW 13 16.09 Overcast OVC070 9 -5 37% 7 75.77 0.0
07 13:50 NW 13 16.09 Overcast BKN065 OVC075 9 -6 34% 7 75.79 0.0
07 12:50 NW 19 16.09 Overcast OVC060 8 -5 40% 5 75.82 0.0
07 11:50 NW 24 16.09 Overcast BKN050 OVC070 7 -5 43% 4 75.84 0.0
07 10:50 W 20 16.09 Overcast SCT050 BKN060 OVC070 7 -4 46% 4 75.9 0.0
07 09:50 W 13 G 28 16.09 Mostly Cloudy BKN046 BKN060 7 -3 49% 5 75.92 0.0
07 08:50 W 19 16.09 A Few Clouds FEW049 6 -3 53% 3 75.95 0.0
07 07:50 W 13 16.09 Mostly Cloudy FEW048 FEW055 BKN065 3 -3 65% 0 75.97 0.0
07 06:50 SW 9 16.09 Overcast OVC070 3 -2 70% 1 75.95 0.0
07 05:50 W 9 16.09 Overcast OVC070 2 -3 70% -0 75.92 0.0
07 05:35 W 11 16.09 Overcast OVC065 2 -3 70% -1 75.92 0.0
07 05:15 SW 11 16.09 Overcast OVC060 2 -3 70% -1 75.92 0.0
07 04:55 Calm 16.09 Overcast OVC060 2 -3 70% 75.92 0.0
07 04:35 W 7 16.09 Overcast OVC060 1 -2 81% -1 75.92 0.0
07 04:15 Calm 16.09 Overcast OVC060 1 -3 75% 75.95 0.0
07 03:55 SW 6 16.09 Overcast OVC060 1 -3 75% 75.95 0.0
07 03:35 W 7 16.09 Overcast OVC060 0 -4 75% -2 75.95 0.0
07 03:15 W 9 16.09 Overcast OVC060 -1 -4 80% -4 75.95 0.0
07 02:55 W 9 16.09 Mostly Cloudy BKN055 -2 -6 74% -5 75.95 0.0
07 02:35 W 7 16.09 Fair CLR 1 -5 65% -1 75.95 0.0
07 02:15 NW 7 16.09 Fair CLR 1 -5 65% -1 75.97 0.0
07 01:55 W 9 16.09 Fair CLR -2 -6 74% -5 75.97 0.0
07 01:35 W 7 16.09 Fair CLR 0 -6 64% -2 75.97 0.0
07 01:15 W 7 16.09 Fair CLR 1 -5 65% -1 76 0.0
07 00:55 W 7 16.09 Fair CLR 0 -5 69% -2 76.02 0.0
07 00:35 W 9 16.09 Partly Cloudy SCT055 0 -5 69% -3 76.02 0.0
07 00:15 W 9 16.09 Overcast OVC055 1 -4 70% -2 76.05 0.0
06 23:35 W 13 16.09 Overcast OVC055 3 -4 60% 0 76.07 0.0
06 23:15 W 13 16.09 Overcast OVC055 3 -4 60% 0 76.07 0.0
06 22:55 W 11 16.09 Overcast OVC055 3 -4 60% 0 76.07 0.0
06 22:35 W 11 16.09 Mostly Cloudy BKN060 2 -4 65% -1 76.1 0.0
06 22:15 W 11 16.09 Partly Cloudy SCT060 2 -4 65% -1 76.07 0.0
06 21:50 W 15 16.09 Mostly Cloudy BKN055 4 -5 52% 1 76.07 0.0
06 20:50 W 13 G 24 16.09 Overcast OVC050 5 -4 53% 2 76.05 0.0
06 19:50 NW 22 16.09 Overcast OVC050 5 -5 49% 1 76.02 0.0
06 18:50 W 20 G 31 16.09 Overcast OVC050 6 -5 46% 3 76.02 0.0
06 17:50 W 19 G 33 16.09 Overcast OVC050 6 -4 49% 3 76 0.0
06 16:50 W 20 G 33 16.09 Overcast OVC050 7 -4 46% 4 75.97 0.0
06 15:50 W 26 16.09 Overcast OVC050 7 -4 46% 3 75.97 0.0
06 14:50 W 24 G 33 16.09 Overcast OVC048 8 -3 46% 5 76 0.0
06 13:50 NW 28 16.09 Overcast OVC050 7 -5 43% 3 76 0.0
06 12:50 NW 22 G 33 16.09 Overcast OVC047 7 -5 43% 4 76 0.0
06 11:50 NW 19 G 33 16.09 Overcast OVC046 7 -4 46% 4 76.02 0.0
06 10:50 NW 11 G 30 16.09 Overcast OVC042 6 -4 49% 4 76.05 0.0
06 09:50 N 11 G 22 16.09 Mostly Cloudy BKN040 5 -4 53% 3 76 0.0
06 08:50 N 13 16.09 Overcast FEW033 OVC046 4 -4 56% 1 75.97 0.0
06 07:50 N 17 16.09 Overcast OVC049 4 -3 61% 1 75.95 0.0
06 06:50 NW 9 16.09 Fair CLR 2 -2 75% -0 75.92 0.0
06 05:50 NW 9 16.09 Overcast OVC055 2 -2 75% -0 75.87 0.0
06 05:35 N 7 16.09 Overcast OVC055 2 -2 75% 0 75.87 0.0
06 05:15 NW 6 16.09 Overcast OVC060 2 -2 75% 75.87 0.0
06 04:55 N 6 16.09 Overcast OVC060 2 -3 70% 75.87 0.0
06 04:35 NW 7 16.09 Overcast OVC060 2 -3 70% 0 75.87 0.0
Date Time (cdt) Wind (kph) Vis. (km) Weather Sky Cond. Air Dwpt Max. Min. Relative Humidity Wind Chill (°C) Heat Index (°C) altimeter (cm) sea level (mb) 1 hr 3 hr 6 hr
6 hour
Temperature (ºC) Pressure Precipitation (cm)